This is the latest recevied weather packets stored in our database for station/object KN6WGU. If no packets are shown the sender has not sent any weather packets the latest 10 day(s).
| Time | Temp. | Humidity | Pressure | Rain* | Wind** | Luminosity | Snow |
|---|---|---|---|---|---|---|---|
| 1787878878 | 21.11° C | 84% | 1007.9 hPa | 0 mm | - | 0 W/m² | - |
| 1787878573 | 21.11° C | 84% | 1007.9 hPa | 0 mm | - | 0 W/m² | - |
| 1787878268 | 21.11° C | 83% | 1007.8 hPa | 0 mm | - | 0 W/m² | - |
| 1787877964 | 21.67° C | 83% | 1007.8 hPa | 0 mm | - | 0 W/m² | - |
| 1787877659 | 21.67° C | 81% | 1007.8 hPa | 0 mm | - | 0 W/m² | - |
| 1787877355 | 21.67° C | 80% | 1007.6 hPa | 0 mm | - | 0 W/m² | - |
| 1787877050 | 22.22° C | 79% | 1007.6 hPa | 0 mm | - | 0 W/m² | - |
| 1787876745 | 22.22° C | 79% | 1007.9 hPa | 0 mm | - | 0 W/m² | - |
| 1787876440 | 22.78° C | 77% | 1007.8 hPa | 0 mm | - | 1 W/m² | - |
| 1787876138 | 22.78° C | 76% | 1007.5 hPa | 0 mm | - | 1 W/m² | - |
| 1787875833 | 22.78° C | 76% | 1007.6 hPa | 0 mm | - | 2 W/m² | - |
| 1787875535 | 23.33° C | 75% | 1007.6 hPa | 0 mm | - | 4 W/m² | - |
| 1787875227 | 23.33° C | 74% | 1007.8 hPa | 0 mm | - | 6 W/m² | - |
| 1787874926 | 23.89° C | 72% | 1007.6 hPa | 0 mm | - | 8 W/m² | - |
| 1787874621 | 23.89° C | 71% | 1007.5 hPa | 0 mm | - | 10 W/m² | - |
| 1787874315 | 23.89° C | 71% | 1007.5 hPa | 0 mm | - | 13 W/m² | - |
| 1787874014 | 24.44° C | 71% | 1007.4 hPa | 0 mm | - | 15 W/m² | - |
| 1787873714 | 24.44° C | 70% | 1007.6 hPa | 0 mm | - | 17 W/m² | - |
| 1787873409 | 24.44° C | 69% | 1007.4 hPa | 0 mm | - | 19 W/m² | - |
| 1787873109 | 25° C | 68% | 1007.6 hPa | 0 mm | - | 22 W/m² | - |
| 1787872803 | 25° C | 67% | 1007.6 hPa | 0 mm | - | 23 W/m² | - |
| 1787872499 | 25.56° C | 66% | 1007.5 hPa | 0 mm | - | 25 W/m² | - |
| 1787872194 | 25.56° C | 64% | 1007.5 hPa | 0 mm | - | 27 W/m² | - |
| 1787871892 | 26.11° C | 63% | 1007.5 hPa | 0 mm | - | 32 W/m² | - |
| 1787871588 | 26.11° C | 62% | 1007.6 hPa | 0 mm | - | 57 W/m² | - |
* Rain latest hour (hover to see other rain measurements)
** Current wind speed in m/s (hover to see current wind gust speed)